Cosmos 2219 Rocket - Orbit

View from above orbital plane
View from above orbital plane
View from above satellite
View from above satellite

Ground track
Ground track

The orbit data is extracted from the following two-line orbital elements,

1 22220U 92076B   13143.95729648  .00000317  00000-0  18394-3 0   433
2 22220 071.0014 305.2009 0012667 006.5550 138.3942 14.16256424 60477
Epoch (UTC): 23 May 2013 22:58:30
Eccentricity: 0.0012667
inclination: 71.0014°
perigee height: 829 km
apogee height: 847 km
right ascension of ascending node: 305.2009°
argument of perigee: 6.5550°
revolutions per day: 14.16256424
mean anomaly at epoch: 138.3942°
orbit number at epoch: 6047

The dashed part of the orbit path shows where the satellite is in the earth's shadow,  

Developed and maintained by Chris Peat, Heavens-Above GmbH. Please read the updated FAQ before sending e-mail. Imprint. DLR